User: anonymous
Location: Fort Wayne
(41.1310°N, 85.1290°W)
Time: 23:50:21
(UTC-04:00)
Language:

Gbstr 26 Del rocket - Orbit

View from above orbital plane
View from above orbital plane
View from above satellite
View from above satellite

Ground track
Ground track

The orbit data is extracted from the following two-line orbital elements,

1 25876U 99041E   14106.71386697  .00002110  00000-0  40620-3 0  3500
2 25876 051.7667 198.1588 0541315 258.4885 266.4996 14.01850334752095
Epoch (UTC): 16 April 2014 17:07:58
Eccentricity: 0.0541315
inclination: 51.7667°
perigee height: 494 km
apogee height: 1280 km
right ascension of ascending node: 198.1588°
argument of perigee: 258.4885°
revolutions per day: 14.01850334
mean anomaly at epoch: 266.4996°
orbit number at epoch: 75209

The dashed part of the orbit path shows where the satellite is in the earth's shadow,  

DLR